Temp
53 53 54 54 54 52 49 42 34 45 47 33 35 37 41 49 51 57 52 54 50 47 43 43 38 43 49 57 54 46 52 43 39 48 57 57 54 48 47 33 36 34 34 28
53 53 53 54 53 52 45 38 34 44 44 33 34 42 43 48 46 50 51 48 48 45 36 33 38 40 53 54 51 48 48 42 38 44 49 53 47 48 46 42 39 32 29 28
52 52 53 53 53 52 52 36 30 33 34 42 45 39 42 42 53 52 50 48 45 41 40 45 36 40 49 52 51 47 47 44 39 38 40 43 36 41 42 39 30 34 32 29
52 52 52 53 52 52 50 39 38 45 29 32 40 45 44 39 39 50 48 41 43 42 36 39 38 43 48 50 49 48 48 35 38 42 43 42 37 32 37 35 38 32 30 29
51 52 52 52 53 52 44 36 47 50 50 43 41 42 42 40 43 45 41 41 42 42 38 40 38 45 45 45 50 48 48 34 35 33 42 41 32 33 38 37 35 33 35 29
50 50 51 51 52 50 43 50 59 52 46 42 37 43 45 45 48 47 48 45 42 41 46 53 54 55 54 52 48 46 42 38 34 35 43 40 32 31 34 37 41 40 36 35
50 50 51 51 51 51 51 54 57 47 41 45 42 47 47 47 47 42 46 50 45 51 56 54 52 50 50 50 50 52 39 37 39 37 38 26 32 45 45 41 41 43 39 37
51 52 52 52 50 51 55 54 52 51 43 47 45 45 46 47 47 44 48 52 55 55 51 44 40 40 42 45 49 49 50 39 35 34 36 31 33 39 40 39 35 41 39 39
51 51 52 52 51 52 55 55 58 55 47 45 51 46 46 41 43 46 45 49 55 53 48 43 36 34 40 38 41 48 47 44 36 37 31 28 33 40 44 44 32 41 41 39
50 50 51 51 50 53 53 48 57 57 44 53 50 43 44 49 46 42 42 42 44 50 43 38 38 39 48 38 35 33 36 37 33 35 34 33 37 39 40 29 31 41 43 43
49 50 49 49 50 52 54 45 54 54 44 45 49 49 46 47 48 39 44 42 44 43 39 41 42 41 43 41 45 42 39 37 35 37 33 29 39 35 31 37 41 42 41 41
48 48 49 50 51 52 57 46 50 53 44 40 50 50 54 56 57 51 49 48 46 47 44 46 48 40 43 43 33 47 36 44 38 36 32 36 35 36 40 41 39 40 41 41
47 48 49 49 51 52 53 48 51 48 40 41 45 45 53 58 60 62 48 52 51 48 51 50 48 41 48 38 40 39 41 46 35 35 34 35 35 36 38 38 38 42 43 41
47 48 48 50 52 53 55 53 56 54 50 38 42 55 49 58 59 58 59 53 54 52 53 47 44 42 48 43 44 41 42 43 37 32 34 35 34 35 36 36 39 41 43 42
48 49 50 51 51 52 55 56 56 59 51 40 42 51 54 57 57 55 55 53 51 50 47 44 45 48 45 43 43 37 44 39 35 34 37 36 33 34 36 34 36 39 39 38
48 48 49 49 50 55 57 41 59 63 60 46 37 48 49 54 55 53 52 53 52 53 50 48 50 49 46 40 34 40 41 43 44 37 38 34 33 35 35 34 38 40 39 39
48 48 48 48 49 54 52 47 53 52 61 45 39 39 47 52 52 52 50 52 51 53 50 49 49 47 48 40 38 39 40 43 42 41 38 32 34 33 39 41 39 39 39 39
48 48 49 49 50 51 49 49 50 53 55 52 38 35 41 51 45 43 52 48 51 50 49 49 48 48 47 35 40 41 42 43 40 41 43 40 41 41 39 40 39 36 35 35
48 49 51 54 51 49 49 45 50 59 54 42 40 35 31 49 45 46 48 52 40 49 43 47 49 41 35 40 42 41 41 40 39 43 41 40 39 38 38 38 38 36 34 34
49 53 46 36 47 44 48 53 45 47 49 50 41 46 35 47 44 41 42 46 40 36 43 48 41 39 44 48 47 45 44 46 46 39 37 39 37 37 37 36 37 35 32 30
50 39 39 50 47 54 48 36 39 42 38 44 43 45 39 50 39 38 45 39 41 33 37 37 36 36 40 47 45 46 48 48 47 47 45 43 41 38 36 34 34 33 31 28
47 48 51 53 46 41 36 33 38 40 35 42 39 42 45 44 50 40 41 35 38 29 43 34 32 38 44 44 43 44 47 47 45 46 44 43 41 39 37 34 32 30 29 24
53 46 36 43 38 30 31 25 32 31 35 38 39 36 43 45 44 38 39 31 31 39 32 33 38 41 43 42 43 43 45 44 43 42 42 41 39 38 34 29 26 23 21 21
39 36 28 32 30 33 33 36 35 35 39 41 41 40 41 39 35 34 30 34 37 30 28 33 39 38 38 39 40 39 32 32 33 32 32 29 27 25 25 24 23 21 20 20
35 37 28 30 34 35 34 35 36 39 44 43 41 42 43 36 31 36 35 29 29 34 34 35 35 36 36 35 36 32 30 29 29 29 25 23 22 22 22 23 25 24 21 20
38 35 31 35 33 31 33 33 33 42 43 46 45 38 33 31 34 31 30 32 31 34 33 34 34 33 32 32 31 30 30 30 29 27 25 24 23 23 24 25 24 22 23 21
34 31 34 34 34 32 33 36 37 44 43 35 41 32 30 39 34 32 40 33 33 33 32 34 34 32 31 31 30 28 29 29 28 27 27 26 28 26 25 24 24 26 26 24
MSLP
1010.92 1011.57 1012.32 1013.06 1013.94 1014.81 1015.73 1016.37 1017.70 1018.86 1019.03 1019.95 1019.02 1016.66 1015.70 1013.89 1012.58 1012.35 1012.03 1011.25 1011.75 1012.39 1013.48 1013.44 1013.36 1012.73 1012.39 1012.68 1013.04 1012.83 1012.77 1013.05 1011.18 1009.08 1008.59 1009.59 1009.84 1010.43 1011.40 1012.05 1011.08 1011.90 1012.47 1015.43
1009.69 1010.36 1011.22 1012.07 1013.14 1013.63 1014.98 1015.79 1017.88 1018.79 1018.33 1017.23 1016.07 1015.33 1014.65 1013.61 1013.21 1012.84 1012.57 1012.45 1012.96 1013.72 1014.93 1014.61 1014.30 1014.01 1013.35 1013.69 1013.53 1013.01 1013.62 1013.04 1011.13 1009.22 1009.85 1010.31 1010.80 1011.73 1012.77 1013.19 1013.20 1012.81 1014.10 1016.11
1008.14 1008.98 1009.73 1010.85 1012.03 1012.62 1013.61 1015.09 1016.65 1017.99 1017.69 1015.15 1013.47 1014.12 1013.53 1013.03 1012.55 1012.34 1013.00 1012.54 1013.61 1014.50 1014.99 1014.59 1014.53 1014.18 1013.97 1014.20 1013.93 1014.17 1014.31 1013.21 1012.28 1010.76 1010.81 1011.79 1012.36 1013.15 1013.54 1013.50 1013.46 1012.89 1014.43 1016.51
1006.29 1007.17 1008.14 1009.38 1010.67 1011.30 1012.46 1012.79 1012.40 1012.35 1014.17 1014.21 1013.33 1012.63 1012.35 1012.53 1012.50 1012.79 1013.28 1013.27 1013.22 1013.60 1014.23 1014.39 1014.21 1013.91 1013.71 1014.13 1014.03 1014.29 1014.05 1013.74 1013.45 1012.69 1012.51 1013.00 1013.71 1014.40 1014.35 1014.33 1013.69 1013.99 1015.49 1017.13
1004.03 1005.01 1006.22 1007.73 1009.01 1010.21 1010.95 1010.10 1008.65 1009.60 1009.50 1011.97 1012.61 1011.63 1010.75 1011.44 1012.11 1012.25 1012.29 1012.05 1012.99 1013.21 1013.36 1013.66 1013.23 1013.04 1013.27 1013.03 1013.55 1013.48 1013.87 1014.10 1014.19 1013.44 1013.09 1013.45 1014.26 1014.91 1014.87 1014.97 1015.06 1015.41 1016.13 1017.91
1001.25 1002.29 1003.72 1005.34 1006.81 1008.31 1006.97 1007.50 1007.46 1007.59 1008.39 1009.62 1010.63 1009.25 1009.81 1010.32 1011.22 1011.84 1011.85 1012.18 1012.97 1012.80 1012.23 1012.67 1012.37 1012.59 1012.54 1012.80 1012.92 1013.12 1013.72 1014.00 1014.14 1012.55 1012.55 1013.13 1014.12 1014.74 1014.84 1015.22 1015.08 1015.17 1015.69 1017.87
996.78 997.59 999.16 1001.14 1002.89 1003.97 1004.59 1005.05 1005.77 1005.83 1005.81 1007.35 1007.61 1008.67 1009.33 1009.70 1010.40 1011.29 1011.61 1011.98 1012.46 1012.42 1012.76 1013.21 1013.54 1013.43 1013.20 1013.13 1013.13 1013.14 1013.67 1014.07 1013.86 1012.65 1012.92 1013.53 1014.57 1014.53 1014.62 1014.83 1015.57 1015.87 1017.05 1018.27
990.85 991.08 992.41 994.95 998.20 1001.22 1003.17 1004.03 1004.24 1004.33 1004.71 1006.25 1007.65 1008.15 1009.04 1009.99 1011.11 1011.73 1011.28 1011.31 1011.73 1012.47 1012.79 1012.81 1012.69 1012.66 1012.57 1012.22 1012.39 1012.68 1013.07 1013.90 1013.42 1012.59 1012.23 1014.17 1015.01 1014.91 1014.82 1014.72 1016.03 1016.61 1017.10 1018.43
986.41 986.62 987.99 989.40 993.32 998.79 1001.43 1002.70 1003.54 1003.93 1004.44 1004.60 1006.34 1007.41 1008.66 1009.56 1010.34 1010.79 1011.57 1012.68 1012.70 1012.37 1012.09 1011.87 1011.00 1010.48 1010.49 1010.85 1011.64 1012.43 1013.14 1013.67 1013.79 1012.79 1012.89 1013.39 1014.65 1015.45 1015.89 1015.70 1016.00 1017.03 1017.46 1018.32
985.05 985.17 985.96 987.67 992.62 997.82 1000.51 1002.43 1002.92 1003.76 1005.31 1005.20 1006.25 1006.97 1007.73 1008.79 1009.71 1010.61 1011.85 1012.43 1012.78 1012.61 1011.81 1011.14 1010.25 1009.33 1009.33 1009.64 1010.84 1012.17 1012.65 1012.97 1013.05 1013.11 1013.40 1014.58 1016.19 1016.83 1017.03 1016.85 1017.17 1017.46 1017.75 1018.29
988.05 988.41 989.64 992.48 996.11 998.52 1000.43 1002.95 1003.31 1003.63 1006.09 1007.44 1007.63 1008.37 1008.47 1009.15 1009.24 1009.82 1010.71 1011.83 1012.15 1012.19 1011.41 1010.46 1009.74 1009.34 1009.69 1009.94 1009.87 1010.64 1011.40 1011.75 1012.49 1013.38 1014.30 1015.64 1017.51 1018.07 1017.86 1017.57 1017.83 1018.30 1018.75 1019.59
991.99 992.62 993.91 995.86 998.11 999.83 1000.27 1002.59 1003.95 1004.84 1006.84 1008.91 1009.28 1009.65 1009.81 1009.16 1008.70 1008.96 1010.17 1009.75 1010.40 1010.77 1010.47 1009.79 1009.45 1009.77 1009.88 1009.82 1010.48 1011.41 1011.81 1012.01 1012.90 1014.89 1016.25 1017.81 1018.80 1018.64 1018.77 1018.95 1019.18 1019.32 1019.63 1020.37
994.56 995.19 996.15 997.40 998.79 999.89 1000.82 1003.01 1004.64 1005.87 1007.63 1009.35 1009.64 1010.19 1010.37 1009.65 1008.92 1008.91 1009.15 1009.77 1010.41 1010.65 1010.58 1009.87 1009.99 1009.82 1009.79 1010.00 1010.42 1011.80 1013.11 1013.68 1014.63 1016.05 1017.63 1018.60 1019.55 1019.94 1020.07 1020.21 1020.35 1020.39 1020.59 1021.13
997.09 997.63 998.63 999.53 1000.56 1001.37 1002.65 1003.39 1004.21 1004.61 1005.55 1007.48 1009.80 1010.03 1010.01 1009.82 1009.59 1009.47 1009.37 1010.06 1010.79 1010.90 1010.75 1010.54 1010.46 1010.34 1011.00 1010.97 1011.40 1012.32 1013.65 1014.41 1015.37 1017.09 1018.38 1019.39 1020.37 1020.86 1021.12 1021.30 1021.41 1021.26 1021.43 1021.71
998.50 998.99 999.55 1000.23 1001.19 1002.16 1003.17 1003.99 1004.40 1004.09 1004.55 1006.93 1009.16 1009.84 1010.23 1009.95 1009.88 1009.95 1010.25 1010.47 1010.59 1010.61 1010.66 1010.69 1010.39 1011.01 1011.79 1012.51 1012.95 1013.80 1014.30 1015.01 1015.70 1015.91 1017.69 1018.95 1020.42 1021.51 1021.89 1022.09 1022.29 1022.33 1022.52 1022.67
999.94 1000.45 1000.79 1001.56 1002.00 1002.07 1002.46 1004.07 1004.79 1004.72 1005.17 1006.67 1008.80 1010.92 1010.77 1010.56 1010.59 1010.62 1010.71 1010.85 1010.80 1010.43 1010.31 1010.72 1011.13 1011.88 1012.19 1012.41 1013.53 1014.86 1015.59 1016.01 1016.21 1017.36 1018.63 1019.63 1021.01 1021.92 1022.58 1022.73 1022.67 1022.84 1023.15 1023.41
1000.68 1001.00 1001.41 1001.76 1002.08 1002.71 1003.54 1005.32 1005.77 1005.59 1005.29 1006.43 1008.71 1010.43 1011.28 1011.08 1011.09 1011.09 1011.34 1011.40 1011.29 1010.74 1011.03 1010.99 1011.20 1012.09 1012.59 1013.19 1013.51 1015.16 1016.10 1016.45 1017.31 1018.45 1019.23 1020.48 1021.33 1021.87 1022.37 1022.57 1023.19 1023.62 1023.99 1024.37
1001.79 1002.19 1002.49 1002.67 1002.90 1003.65 1004.77 1006.11 1006.03 1005.78 1005.22 1005.98 1007.97 1010.29 1011.12 1011.33 1011.02 1011.39 1011.77 1011.49 1011.40 1011.61 1011.44 1011.83 1011.30 1012.38 1012.60 1013.48 1014.41 1015.51 1016.26 1017.05 1018.01 1018.74 1019.03 1019.87 1020.84 1021.65 1022.43 1023.12 1023.64 1024.08 1024.65 1025.16
1002.57 1002.48 1002.60 1003.07 1004.20 1004.91 1006.25 1006.77 1006.14 1005.55 1005.63 1006.50 1007.95 1008.82 1010.41 1011.19 1011.20 1011.68 1011.88 1011.55 1011.65 1012.31 1011.87 1011.50 1011.88 1012.33 1012.89 1013.52 1014.42 1015.44 1016.42 1017.14 1018.00 1018.69 1019.54 1020.24 1020.91 1021.71 1022.52 1023.12 1023.67 1024.27 1025.11 1025.87
1003.19 1003.12 1003.86 1005.54 1006.43 1007.17 1006.78 1006.35 1006.31 1006.29 1006.94 1007.33 1008.07 1008.88 1009.95 1010.49 1010.98 1011.59 1011.99 1011.93 1011.94 1012.05 1012.11 1012.34 1012.32 1012.51 1013.47 1013.76 1014.44 1015.46 1016.40 1016.91 1017.78 1018.56 1019.44 1020.27 1021.07 1021.92 1022.70 1023.37 1024.14 1025.08 1026.05 1026.88
1003.63 1004.75 1005.52 1006.40 1006.73 1006.10 1006.42 1007.13 1007.19 1007.55 1008.18 1008.81 1009.35 1009.48 1009.91 1010.75 1010.87 1011.45 1011.91 1011.96 1012.27 1012.19 1012.58 1012.65 1012.70 1012.71 1013.84 1014.42 1015.22 1016.01 1016.58 1017.30 1017.89 1018.40 1019.31 1020.27 1021.18 1022.09 1023.05 1024.10 1025.04 1026.03 1026.97 1027.81
1004.79 1004.79 1005.77 1006.05 1006.40 1006.70 1007.25 1008.06 1008.25 1007.89 1008.79 1009.40 1009.76 1010.08 1010.62 1011.42 1011.32 1011.84 1012.60 1012.60 1012.78 1012.65 1012.93 1013.10 1012.70 1013.42 1014.25 1015.05 1015.91 1016.65 1017.11 1017.77 1018.58 1019.15 1019.91 1020.72 1021.73 1022.78 1023.83 1024.88 1025.89 1026.86 1027.73 1028.83
1005.11 1005.41 1006.40 1006.34 1007.50 1007.75 1007.88 1008.55 1008.69 1009.06 1009.62 1009.93 1010.30 1010.66 1010.94 1011.68 1012.23 1012.63 1012.71 1012.98 1013.19 1013.70 1013.42 1012.89 1012.95 1013.98 1015.00 1015.85 1016.67 1017.39 1017.98 1018.91 1019.57 1020.27 1021.08 1021.94 1022.85 1023.69 1024.83 1025.97 1027.15 1028.11 1028.91 1029.56
1005.88 1006.61 1007.71 1007.86 1008.47 1008.81 1009.13 1008.81 1008.89 1009.78 1009.54 1009.71 1010.35 1010.65 1011.03 1012.20 1012.56 1013.08 1013.05 1013.50 1013.45 1013.49 1013.33 1012.97 1013.85 1015.15 1016.07 1017.05 1017.93 1018.84 1019.84 1020.53 1021.16 1021.91 1022.71 1023.64 1024.54 1025.48 1026.47 1027.23 1027.92 1028.58 1029.25 1029.85
1007.45 1007.93 1008.86 1009.49 1010.10 1010.26 1010.49 1010.45 1010.20 1010.06 1009.98 1010.07 1010.40 1010.74 1011.28 1012.13 1012.89 1013.04 1013.31 1013.72 1013.44 1013.25 1013.29 1014.44 1015.49 1016.41 1017.31 1018.29 1019.18 1020.29 1021.12 1021.88 1022.49 1023.29 1024.12 1024.94 1025.67 1026.33 1027.13 1027.82 1028.17 1028.73 1029.43 1029.89
1008.80 1009.78 1010.23 1010.46 1010.61 1010.97 1010.93 1011.08 1010.84 1010.60 1010.41 1010.18 1010.15 1010.75 1011.52 1012.19 1012.48 1012.78 1012.94 1013.05 1013.21 1014.04 1015.15 1016.14 1016.85 1017.70 1018.61 1019.46 1020.39 1021.23 1021.95 1022.54 1023.25 1024.05 1024.77 1025.45 1026.10 1026.62 1027.30 1027.94 1028.45 1029.01 1029.33 1029.71
1010.19 1011.11 1011.35 1011.08 1011.24 1011.48 1011.54 1011.47 1011.52 1011.19 1010.38 1010.33 1010.24 1010.84 1011.67 1012.15 1012.22 1012.63 1012.75 1013.63 1014.76 1015.73 1016.53 1016.99 1017.70 1018.58 1019.39 1020.24 1021.12 1021.94 1022.51 1023.11 1023.81 1024.51 1025.14 1025.78 1026.28 1026.95 1027.34 1027.71 1028.33 1028.65 1029.00 1029.36
Wind_Speed
23 21 20 18 21 24 15 5 5 9 13 5 5 10 8 9 13 12 5 8 7 10 8 11 1 8 4 7 4 6 2 5 7 7 6 3 5 6 10 5 8 7 6 5
26 24 24 21 25 33 7 6 4 5 8 11 14 10 14 12 15 19 13 8 6 7 4 5 5 6 4 6 6 2 7 6 7 12 9 5 3 7 10 13 12 15 10 5
29 28 28 27 29 37 12 5 6 4 4 13 19 22 15 16 21 17 9 9 8 9 9 7 9 10 8 8 7 5 2 6 9 8 7 3 4 8 9 7 5 3 5 7
31 31 31 32 35 38 14 6 9 13 12 14 14 22 13 20 13 12 12 7 9 11 7 11 8 11 10 9 6 6 6 5 7 11 3 3 3 2 6 7 8 4 7 6
32 32 33 36 39 40 14 10 13 15 11 25 22 22 21 27 23 19 19 8 15 13 7 11 11 13 11 7 10 12 4 1 2 6 13 11 3 2 6 2 6 8 10 7
36 39 41 42 44 38 12 15 18 13 15 24 21 22 24 26 22 18 17 15 14 17 14 11 0 8 5 1 8 9 6 3 3 5 7 6 10 7 5 6 4 3 2 7
46 48 50 51 53 52 10 13 14 12 14 20 23 26 26 23 23 11 12 18 18 8 10 8 3 4 7 9 10 9 5 4 4 5 4 6 6 8 7 9 5 7 10 9
49 47 48 57 61 61 21 11 14 14 11 18 24 24 25 17 15 19 18 15 7 12 10 6 6 6 6 12 12 12 10 4 4 5 7 6 6 9 6 4 5 2 6 9
36 37 40 44 63 60 21 14 11 11 11 16 23 25 24 16 19 16 9 9 8 9 6 6 9 7 8 8 9 7 9 8 4 5 7 5 7 5 2 1 6 4 5 7
17 24 31 49 60 41 16 7 10 10 6 15 21 20 18 13 13 8 14 10 6 7 7 8 7 7 4 8 10 7 8 8 12 9 9 7 4 3 3 7 6 7 5 7
35 39 43 47 40 31 18 7 4 10 5 7 12 13 16 11 13 9 13 8 5 7 9 8 4 4 6 3 1 9 10 8 5 6 7 10 5 4 4 8 11 9 10 11
36 38 39 38 33 25 21 10 4 10 7 7 11 12 2 6 14 8 14 1 16 7 8 4 3 3 4 8 6 5 4 3 3 6 5 6 4 7 9 8 10 9 11 12
30 30 30 27 26 19 16 10 8 12 13 10 9 10 8 6 7 6 7 5 5 4 3 3 1 5 6 6 3 6 2 2 3 7 5 7 7 7 9 9 9 9 10 11
26 27 23 21 24 18 16 10 9 10 8 10 8 7 7 6 7 6 4 12 5 7 4 3 3 3 3 2 0 4 1 7 7 5 7 9 7 7 8 10 8 9 8 9
21 22 25 27 26 23 13 8 2 4 5 10 12 16 11 10 12 14 13 12 10 7 4 3 3 5 3 3 2 4 2 5 4 1 13 2 12 8 8 10 8 8 9 9
22 21 22 18 14 15 11 7 8 11 12 10 6 5 9 12 12 12 11 7 4 1 3 3 3 3 3 4 3 6 4 4 2 4 10 13 12 10 9 8 8 8 8 8
23 23 22 21 18 8 4 5 6 2 8 6 7 6 3 7 8 7 6 5 2 2 3 1 4 5 3 3 3 9 7 7 13 15 16 13 12 7 11 10 10 9 9 8
22 20 20 23 25 17 9 8 6 6 6 5 6 6 7 5 6 4 1 4 3 3 3 2 3 4 1 2 6 12 11 13 14 12 5 12 12 13 12 11 10 10 9 9
12 12 11 9 7 5 4 6 8 6 5 5 3 9 6 4 5 4 3 1 2 1 2 2 2 4 3 6 11 14 15 11 11 11 14 15 15 14 12 10 9 9 9 9
6 6 6 5 4 4 7 3 4 5 4 4 6 6 7 9 6 2 4 0 4 4 2 4 3 3 4 8 11 12 8 12 14 16 16 14 13 12 11 9 7 9 9 8
4 4 4 4 3 2 3 4 3 3 4 4 1 10 10 4 5 5 2 3 2 4 4 3 4 3 8 10 10 11 11 13 11 9 12 11 12 12 11 10 10 10 10 9
6 9 4 2 3 3 5 3 2 2 5 6 7 9 8 4 1 4 3 3 2 2 3 2 3 5 12 12 11 12 12 11 9 9 11 10 12 11 11 12 11 11 10 9
3 4 5 3 4 4 2 5 3 5 4 5 7 8 4 4 3 3 2 3 2 3 3 4 4 9 11 12 11 12 10 11 9 10 10 12 12 12 12 12 10 11 9 7
5 4 6 4 4 4 4 5 6 3 8 10 9 5 4 3 3 1 3 2 4 3 4 3 6 9 10 9 10 12 9 9 11 11 11 12 11 11 10 9 9 9 9 7
5 4 5 5 3 5 5 5 6 7 9 8 7 4 4 3 4 2 4 3 4 4 1 4 6 10 10 9 10 11 11 10 10 11 11 11 11 10 11 9 8 8 8 7
4 7 4 2 6 5 5 6 5 2 5 3 3 4 3 2 4 3 3 4 3 3 5 3 7 9 9 9 10 10 10 10 10 10 11 11 10 10 10 9 8 7 7 6
4 4 4 4 6 4 3 5 4 0 2 2 2 3 3 3 2 3 0 1 4 3 4 4 7 11 11 11 10 10 10 11 11 11 11 10 10 10 10 9 8 7 7 4
Wind_Direction
234 230 223 215 196 155 169 146 181 168 152 142 209 214 203 237 193 218 239 249 180 203 162 210 66 237 208 175 188 210 155 225 263 263 69 112 282 20 321 285 286 315 315 92
233 227 219 208 197 162 142 146 101 207 182 194 201 215 222 205 204 215 203 176 154 110 203 187 190 231 122 164 222 184 180 230 266 152 148 161 359 0 325 294 278 259 270 100
233 226 215 205 194 174 173 136 142 168 229 250 212 201 213 207 219 196 218 148 119 156 198 217 200 193 198 210 234 49 296 251 277 317 30 19 343 329 327 292 242 143 45 118
236 229 219 205 191 178 176 181 202 180 191 208 231 189 198 194 192 206 202 153 194 171 180 202 212 200 188 207 188 211 244 254 298 274 271 185 46 330 356 354 316 327 107 96
234 227 218 207 195 180 203 183 203 178 204 190 210 192 202 198 199 187 198 190 188 176 180 194 204 190 196 202 178 213 167 243 309 259 230 232 209 206 204 98 83 98 126 98
240 231 219 206 197 187 189 203 203 179 203 184 192 205 205 203 195 196 185 200 181 201 204 192 111 194 185 287 208 204 169 220 229 262 184 193 216 176 143 143 41 226 238 103
247 237 222 207 196 191 191 191 187 188 190 191 195 203 200 202 193 182 208 196 198 157 113 106 148 225 232 233 234 247 169 197 266 279 172 235 90 159 169 126 94 89 106 133
247 236 225 204 193 187 187 181 190 192 192 186 190 203 191 182 179 206 203 187 168 153 152 178 185 187 200 217 223 208 212 186 254 260 236 102 167 200 194 224 113 83 142 149
241 224 210 197 177 177 176 171 185 191 195 196 185 181 178 183 184 175 118 110 149 168 181 211 212 192 200 175 162 191 183 223 254 269 253 274 73 118 130 176 193 141 149 168
139 155 175 166 155 158 156 140 175 158 152 173 173 176 172 157 151 158 150 153 161 207 199 208 225 213 238 173 186 179 186 213 229 236 261 103 84 152 127 212 98 131 128 163
101 109 115 129 139 135 142 108 61 138 98 116 137 161 161 171 199 159 147 139 190 185 200 212 186 258 189 216 196 182 195 206 209 229 255 231 33 144 247 106 116 123 106 93
93 101 107 114 117 121 123 97 56 106 86 111 101 79 169 261 184 162 173 168 160 169 199 231 160 227 136 204 198 219 237 323 9 4 40 73 29 63 100 108 118 118 114 118
83 93 100 99 111 112 88 111 132 103 118 110 111 110 87 62 95 134 158 156 107 161 355 144 178 216 204 197 161 123 125 63 93 181 123 110 89 74 91 104 109 115 110 117
92 100 110 120 123 126 129 137 132 138 123 110 106 110 70 98 127 110 111 120 134 128 166 161 182 179 316 79 58 94 77 156 150 90 127 118 105 94 96 98 110 104 101 106
102 110 114 112 110 108 105 104 59 64 122 117 116 92 67 89 99 104 115 128 139 148 154 166 181 88 150 72 129 137 170 150 213 129 157 86 130 113 116 115 117 116 116 110
101 103 100 107 121 137 112 75 57 96 119 120 94 103 102 98 95 96 97 95 99 146 137 89 72 80 276 177 122 111 124 79 51 133 108 102 117 120 124 130 138 117 113 111
90 87 88 83 77 68 74 92 96 338 113 105 115 120 105 107 102 100 96 99 62 107 113 168 140 158 198 215 166 131 145 127 108 121 121 115 140 143 160 131 116 113 104 104
90 95 99 103 106 121 77 34 17 291 93 86 102 107 134 212 139 111 279 118 155 21 76 166 190 139 116 164 132 132 135 129 129 151 116 135 146 141 137 135 137 133 127 121
74 81 71 55 36 70 80 328 303 48 52 93 110 144 133 189 96 118 124 306 110 96 169 169 232 124 214 153 161 146 145 157 150 127 127 138 147 148 150 150 150 140 134 131
61 42 52 65 46 318 249 177 49 31 55 35 91 104 130 157 156 105 127 266 149 167 154 110 266 117 112 143 154 143 152 133 144 144 151 155 152 156 155 153 143 138 140 131
52 62 68 92 228 195 40 65 59 116 88 76 87 131 130 132 131 121 28 151 164 185 142 208 197 184 158 147 138 138 150 148 153 147 149 157 158 156 149 143 140 137 143 144
49 97 109 93 41 65 78 58 88 68 107 141 134 123 110 100 43 93 165 119 242 139 154 187 230 108 145 150 145 146 148 145 135 134 137 142 145 147 147 143 141 139 129 124
99 61 65 24 13 76 101 142 124 116 125 145 147 130 115 128 86 77 89 163 104 173 184 219 67 135 147 158 155 150 139 136 134 125 129 131 132 129 135 127 119 130 129 133
51 42 60 28 69 68 42 61 88 94 137 132 129 106 91 110 86 139 124 86 172 211 211 164 122 143 142 143 139 128 101 94 102 102 102 106 113 110 112 125 132 130 134 137
60 32 58 63 82 67 84 96 116 126 115 128 116 96 92 92 110 166 120 166 199 220 181 73 105 149 144 136 139 142 135 131 131 132 129 127 128 128 123 129 133 124 134 144
59 40 100 119 109 97 90 104 86 112 106 126 109 113 94 101 127 154 203 196 187 97 67 104 133 144 135 145 147 140 139 138 135 131 134 133 132 136 133 134 133 145 148 154
43 63 9 26 65 64 70 116 90 298 126 66 103 80 68 130 146 152 256 55 54 100 117 120 143 157 153 146 138 136 137 139 137 136 138 136 137 131 141 149 155 167 157 168